Retour au catalogue

STARLINK-36699

ActifCommunicationsSSO
NORAD 67652·PAYLOAD·🇺🇸 United States

Lancé Feb 2, 2026 depuis Vandenberg Space Force Base

Loading…

Prochains Passages (prochaines 24 heures)

TLE

FraisSource: CelesTrak SupGP

Époque: Sep 14, 2026, 22:35 UTC

1 67652C 26022E   26257.94145833  .00060985  00000+0  18947-2 0  2572
2 67652  97.2849 289.6216 0001414  88.9740  63.8275 15.33382610    11

Suivez STARLINK-36699 en temps réel avec AllMySat

Download on the App Store